Weather History for Ionia, MI

Change the Weather History Date:

Tuesday, May 21, 2013

  Actual Average (KGRR) Record (KGRR)
Temperature  
Mean Temperature 72 °F 60 °F  
Max Temperature 81 °F 71 °F 91 °F (1977)
Min Temperature 63 °F 49 °F 31 °F (1969)
Degree Days  
Heating Degree Days 0 6  
Month to date heating degree days 185  
Since 1 July heating degree days 6390  
Cooling Degree Days 7 1  
Month to date cooling degree days 17  
Year to date cooling degree days 25  
Growing Degree Days 22 (Base 50)    
Moisture  
Dew Point 63 °F    
Average Humidity 72    
Maximum Humidity 97    
Minimum Humidity 53    
Precipitation  
Precipitation 0.20 in 0.14 in 2.46 in (2004)
Month to date precipitation 2.68  
Year to date precipitation 12.28  
Snow  
Snow 0.00 in 0.00 in T in (2004)
Month to date snowfall 0.0  
Since 1 July snowfall 74.9  
Snow Depth -    
Sea Level Pressure  
Sea Level Pressure 29.75 in    
Wind  
Wind Speed 11 mph (SSW)    
Max Wind Speed 25 mph    
Max Gust Speed 32 mph    
Visibility 10 miles    
Events Rain    
T = Trace of Precipitation, MM = Missing Value Source: NWS Daily Summary

Daily Weather History Graph

Daily Weather History Graph

Search for Another Location

Airport:

Trip Planner

Search our weather history database for the weather conditions in past years. The results will help you decide how hot, cold, wet, or windy it might be!

Date:

Astronomy

May. 21, 2013 Rise Set
Actual Time 6:11 AM EDT 9:02 PM EDT
Civil Twilight 5:38 AM EDT 9:36 PM EDT
Nautical Twilight 4:55 AM EDT 10:18 PM EDT
Astronomical Twilight 4:06 AM EDT 11:08 PM EDT
Moon 5:10 PM EDT (5/21) 3:44 AM EDT (5/21)
Length of Visible Light 15h 58m
Length of Day
14h 51m
Waxing Gibbous, 84% of the Moon is Illuminated
May 21
Waxing Gibbous
May 25
Full
May 31
Last Quarter
Jun 8
New
Jun 16
First Quarter

Hourly Weather History & Observations

Time (EDT) Temp. Heat Index Dew Point Humidity Pressure Visibility Wind Dir Wind Speed Gust Speed Precip Events Conditions
12:14 AM 76.3 °F - 65.3 °F 69% 29.79 in 10.0 mi SSW 11.5 mph - N/A   Clear
12:34 AM 76.3 °F - 65.5 °F 69% 29.79 in 10.0 mi SSW 13.8 mph 20.7 mph N/A   Clear
12:54 AM 76.3 °F - 65.5 °F 69% 29.78 in 10.0 mi SSW 12.7 mph 18.4 mph N/A   Clear
1:14 AM 75.7 °F - 65.5 °F 70% 29.78 in 10.0 mi SSW 10.4 mph 17.3 mph N/A   Clear
1:34 AM 75.4 °F - 65.5 °F 71% 29.77 in 10.0 mi SSW 9.2 mph - N/A   Clear
1:54 AM 74.8 °F - 65.3 °F 72% 29.77 in 10.0 mi South 9.2 mph - N/A   Clear
2:14 AM 73.9 °F - 65.3 °F 74% 29.77 in 10.0 mi South 6.9 mph - N/A   Clear
2:34 AM 73.6 °F - 65.3 °F 75% 29.77 in 10.0 mi South 9.2 mph - N/A   Clear
2:54 AM 73.4 °F - 65.3 °F 76% 29.76 in 10.0 mi South 9.2 mph - N/A   Clear
3:14 AM 73.0 °F - 65.3 °F 77% 29.75 in 10.0 mi South 9.2 mph 16.1 mph N/A   Clear
3:34 AM 73.6 °F - 65.7 °F 76% 29.74 in 10.0 mi South 8.1 mph - N/A   Mostly Cloudy
3:54 AM 74.7 °F - 64.8 °F 71% 29.76 in 10.0 mi WSW 25.3 mph 32.2 mph N/A   Overcast
4:14 AM 71.6 °F - 60.1 °F 67% 29.76 in 10.0 mi West 12.7 mph 26.5 mph N/A   Mostly Cloudy
4:34 AM 70.3 °F - 59.7 °F 69% 29.76 in 10.0 mi West 9.2 mph 17.3 mph N/A   Mostly Cloudy
4:54 AM 69.1 °F - 60.3 °F 73% 29.78 in 10.0 mi West 10.4 mph - N/A   Scattered Clouds
5:14 AM 68.4 °F - 60.8 °F 77% 29.81 in 10.0 mi SW 10.4 mph 18.4 mph 0.05 in Rain Heavy Rain
5:34 AM 64.9 °F - 62.1 °F 90% 29.81 in 7.0 mi SW 9.2 mph 19.6 mph 0.13 in Rain Rain
5:54 AM 64.4 °F - 62.6 °F 94% 29.80 in 10.0 mi SSE 6.9 mph - 0.16 in Rain Rain
6:14 AM 63.5 °F - 62.4 °F 96% 29.75 in 7.0 mi East 6.9 mph - 0.04 in Rain Light Rain
6:34 AM 63.3 °F - 62.4 °F 97% 29.70 in 10.0 mi East 12.7 mph - 0.04 in   Overcast
6:54 AM 64.0 °F - 62.8 °F 96% 29.74 in 10.0 mi South 4.6 mph - 0.04 in   Overcast
7:14 AM 64.0 °F - 63.0 °F 96% 29.76 in 10.0 mi SW 5.8 mph - N/A   Overcast
7:34 AM 64.4 °F - 63.3 °F 96% 29.74 in 10.0 mi South 3.5 mph - N/A   Scattered Clouds
7:54 AM 65.5 °F - 64.0 °F 95% 29.74 in 10.0 mi South 3.5 mph - N/A   Clear
8:14 AM 65.7 °F - 63.9 °F 94% 29.74 in 10.0 mi South 4.6 mph - N/A   Clear
8:34 AM 67.1 °F - 64.2 °F 90% 29.77 in 10.0 mi SSW 12.7 mph - N/A   Clear
8:54 AM 68.2 °F - 64.6 °F 88% 29.77 in 10.0 mi South 13.8 mph - N/A   Scattered Clouds
9:14 AM 69.1 °F - 63.9 °F 83% 29.77 in 10.0 mi SSW 12.7 mph 18.4 mph N/A   Scattered Clouds
9:34 AM 70.3 °F - 63.3 °F 78% 29.77 in 10.0 mi SSW 12.7 mph - N/A   Scattered Clouds
9:54 AM 71.6 °F - 62.6 °F 73% 29.77 in 10.0 mi SW 13.8 mph - N/A   Clear
10:14 AM 72.0 °F - 62.6 °F 72% 29.78 in 10.0 mi SW 16.1 mph 21.9 mph N/A   Scattered Clouds
10:34 AM 71.2 °F - 62.6 °F 74% 29.78 in 10.0 mi SW 15.0 mph - N/A   Mostly Cloudy
10:54 AM 70.5 °F - 62.6 °F 76% 29.78 in 10.0 mi SSW 13.8 mph 18.4 mph N/A   Mostly Cloudy
11:14 AM 70.2 °F - 63.0 °F 78% 29.77 in 10.0 mi SSW 11.5 mph - N/A   Overcast
11:34 AM 70.5 °F - 63.7 °F 79% 29.77 in 10.0 mi SSW 11.5 mph - N/A   Mostly Cloudy
11:54 AM 71.6 °F - 63.3 °F 75% 29.77 in 10.0 mi SSW 9.2 mph - N/A   Scattered Clouds
12:14 PM 71.6 °F - 63.5 °F 76% 29.77 in 10.0 mi SSW 12.7 mph - N/A   Mostly Cloudy
12:34 PM 72.5 °F - 63.7 °F 74% 29.77 in 10.0 mi SSW 13.8 mph - N/A   Overcast
12:54 PM - - - N/A% - - North - - N/A   Unknown
1:14 PM - - - N/A% - - North - - N/A   Unknown
1:33 PM 75.7 °F - 63.5 °F 66% 29.76 in 10.0 mi SW 8.1 mph - N/A   Mostly Cloudy
1:54 PM 76.6 °F - 63.3 °F 63% 29.74 in 10.0 mi SSW 10.4 mph - N/A   Scattered Clouds
2:14 PM 77.0 °F - 63.9 °F 64% 29.74 in 10.0 mi South 10.4 mph - N/A   Mostly Cloudy
2:34 PM 77.7 °F - 63.5 °F 61% 29.74 in 10.0 mi SSW 10.4 mph - N/A   Mostly Cloudy
2:54 PM 79.0 °F - 64.0 °F 60% 29.74 in 10.0 mi SSW 9.2 mph 16.1 mph N/A   Mostly Cloudy
3:14 PM 79.5 °F - 62.2 °F 55% 29.74 in 10.0 mi SW 12.7 mph 20.7 mph N/A   Mostly Cloudy
3:34 PM 80.2 °F 81.4 °F 62.4 °F 54% 29.73 in 10.0 mi SW 16.1 mph 19.6 mph N/A   Mostly Cloudy
3:54 PM 80.4 °F 81.8 °F 63.5 °F 56% 29.73 in 10.0 mi SW 12.7 mph - N/A   Mostly Cloudy
4:14 PM 79.9 °F - 62.4 °F 55% 29.73 in 10.0 mi SW 18.4 mph 23.0 mph N/A   Overcast
4:34 PM 81.1 °F 82.5 °F 63.7 °F 55% 29.72 in 10.0 mi WSW 13.8 mph - N/A   Mostly Cloudy
4:54 PM 80.2 °F 81.4 °F 62.2 °F 54% 29.72 in 10.0 mi WSW 18.4 mph 23.0 mph N/A   Scattered Clouds
5:14 PM 80.8 °F 81.9 °F 62.1 °F 53% 29.72 in 10.0 mi SW 16.1 mph 24.2 mph N/A   Scattered Clouds
5:34 PM 79.7 °F - 61.5 °F 54% 29.73 in 10.0 mi SW 16.1 mph 20.7 mph N/A   Scattered Clouds
5:54 PM 80.1 °F 81.2 °F 62.2 °F 54% 29.72 in 10.0 mi SW 15.0 mph 21.9 mph N/A   Scattered Clouds
6:14 PM 80.6 °F 81.7 °F 62.2 °F 53% 29.72 in 10.0 mi SW 18.4 mph 21.9 mph N/A   Scattered Clouds
6:34 PM 80.1 °F 81.2 °F 62.2 °F 54% 29.71 in 10.0 mi WSW 13.8 mph - N/A   Clear
6:54 PM 79.9 °F - 61.9 °F 54% 29.71 in 10.0 mi SW 12.7 mph 16.1 mph N/A   Clear
7:14 PM 79.7 °F - 63.5 °F 58% 29.71 in 10.0 mi WSW 8.1 mph - N/A   Clear
7:34 PM 78.4 °F - 62.8 °F 58% 29.71 in 10.0 mi SW 5.8 mph - N/A   Scattered Clouds
7:54 PM 79.3 °F - 63.5 °F 58% 29.71 in 10.0 mi SSW 6.9 mph - N/A   Scattered Clouds
8:14 PM 78.6 °F - 63.9 °F 60% 29.71 in 10.0 mi SSW 5.8 mph - N/A   Clear
8:34 PM 77.5 °F - 64.0 °F 63% 29.70 in 10.0 mi SSW 4.6 mph - N/A   Clear
8:54 PM 77.0 °F - 64.0 °F 64% 29.71 in 10.0 mi SSW 4.6 mph - N/A   Clear
9:14 PM 76.1 °F - 63.7 °F 65% 29.71 in 10.0 mi SW 3.5 mph - N/A   Clear
9:34 PM 74.5 °F - 63.9 °F 69% 29.72 in 10.0 mi SSW 3.5 mph - N/A   Clear
9:54 PM 69.8 °F - 63.9 °F 81% 29.72 in 10.0 mi SSW 3.5 mph - N/A   Clear
10:14 PM 72.9 °F - 64.0 °F 74% 29.73 in 10.0 mi SSW 5.8 mph - N/A   Clear
10:34 PM 71.2 °F - 64.0 °F 78% 29.73 in 10.0 mi SSW 3.5 mph - N/A   Clear
10:54 PM 69.8 °F - 63.7 °F 81% 29.73 in 10.0 mi Calm Calm - N/A   Clear
11:14 PM 70.3 °F - 63.1 °F 78% 29.73 in 10.0 mi SW 4.6 mph - N/A   Clear
11:34 PM 68.5 °F - 63.0 °F 82% 29.73 in 10.0 mi WSW 4.6 mph - N/A   Clear
11:54 PM 67.1 °F - 62.6 °F 85% 29.72 in 10.0 mi SW 3.5 mph - N/A   Clear